,,PA_Meas_PMT16A,,PR_Meas_QMR101_102,,RH_Meas_QMH101,,SR_Meas_QMS101,,TA_Meas_QMH101,,GenWind,,GenWind,
time,status,PA,status,PR,status,RH,status,SR,status,TA,status,DirAvg,status,SpdAvg,
2013-12-21, 00:00:04,VALID,919.196,VALID,0,VALID,78.4602,VALID,0,VALID,19.1973,VALID,143,VALID,0,
2013-12-21, 00:01:04,VALID,919.189,VALID,0,VALID,78.4373,VALID,0,VALID,19.1763,VALID,143,VALID,0,
2013-12-21, 00:02:04,VALID,919.189,VALID,0,VALID,78.0866,VALID,0,VALID,19.1778,VALID,143,VALID,0,
2013-12-21, 00:03:04,VALID,919.169,VALID,0,VALID,79.032,VALID,0,VALID,19.1763,VALID,143,VALID,0,
2013-12-21, 00:04:04,VALID,919.166,VALID,0,VALID,79.3521,VALID,0,VALID,19.1568,VALID,143,VALID,0,
2013-12-21, 00:05:04,VALID,919.142,VALID,0,VALID,79.3903,VALID,0,VALID,19.1388,VALID,143,VALID,0,
2013-12-21, 00:06:04,VALID,919.145,VALID,0,VALID,78.8642,VALID,0,VALID,19.1388,VALID,143,VALID,0,
2013-12-21, 00:07:04,VALID,919.106,VALID,0,VALID,80.427,VALID,0,VALID,19.1178,VALID,143,VALID,0,
2013-12-21, 00:08:04,VALID,919.082,VALID,0,VALID,80.1755,VALID,0,VALID,19.0998,VALID,143,VALID,0,
2013-12-21, 00:09:04,VALID,919.074,VALID,0,VALID,80.8768,VALID,0,VALID,19.0998,VALID,143,VALID,0,
2013-12-21, 00:10:04,VALID,919.103,VALID,0,VALID,79.3521,VALID,0,VALID,19.0398,VALID,143,VALID,0,
2013-12-21, 00:11:04,VALID,919.08,VALID,0,VALID,79.9925,VALID,0,VALID,19.0593,VALID,143,VALID,0,
2013-12-21, 00:12:04,VALID,919.113,VALID,0,VALID,80.0687,VALID,0,VALID,19.0803,VALID,143,VALID,0,
2013-12-21, 00:13:04,VALID,919.104,VALID,0,VALID,79.9544,VALID,0,VALID,19.0593,VALID,143,VALID,0,
2013-12-21, 00:14:04,VALID,919.095,VALID,0,VALID,80.9378,VALID,0,VALID,19.0998,VALID,143,VALID,0,
2013-12-21, 00:15:04,VALID,919.094,VALID,0,VALID,79.5275,VALID,0,VALID,18.9814,VALID,143,VALID,0,
2013-12-21, 00:16:04,VALID,919.081,VALID,0,VALID,79.6571,VALID,0,VALID,18.9424,VALID,143,VALID,0,
2013-12-21, 00:17:04,VALID,919.117,VALID,0,VALID,79.2912,VALID,0,VALID,18.9229,VALID,143,VALID,0,
2013-12-21, 00:18:04,VALID,919.079,VALID,0,VALID,79.3521,VALID,0,VALID,18.9633,VALID,140,VALID,0,
2013-12-21, 00:19:04,VALID,919.05,VALID,0,VALID,79.5503,VALID,0,VALID,19.0232,VALID,126,VALID,0,
2013-12-21, 00:20:04,VALID,919.056,VALID,0,VALID,79.5656,VALID,0,VALID,18.9814,VALID,125,VALID,0,
2013-12-21, 00:21:04,VALID,919.039,VALID,0,VALID,79.9239,VALID,0,VALID,19.0023,VALID,126,VALID,0,
2013-12-21, 00:22:04,VALID,919.041,VALID,0,VALID,80.5795,VALID,0,VALID,18.9828,VALID,126,VALID,0,
2013-12-21, 00:23:04,VALID,919.015,VALID,0,VALID,80.2974,VALID,0,VALID,18.9229,VALID,125,VALID,0,
2013-12-21, 00:24:04,VALID,919.025,VALID,0,VALID,80.427,VALID,0,VALID,18.9424,VALID,125,VALID,0,
2013-12-21, 00:25:04,VALID,918.998,VALID,0,VALID,80.6634,VALID,0,VALID,18.9438,VALID,125,VALID,0,
2013-12-21, 00:26:04,VALID,918.99,VALID,0,VALID,80.5948,VALID,0,VALID,18.9034,VALID,125,VALID,0,
2013-12-21, 00:27:04,VALID,919.006,VALID,0,VALID,81.0903,VALID,0,VALID,18.9452,VALID,125,VALID,0,
2013-12-21, 00:28:04,VALID,918.984,VALID,0,VALID,81.5934,VALID,0,VALID,18.8449,VALID,125,VALID,0,
2013-12-21, 00:29:04,VALID,918.937,VALID,0,VALID,82.371,VALID,0,VALID,18.7864,VALID,125,VALID,0,
2013-12-21, 00:30:04,VALID,918.961,VALID,0,VALID,83.0724,VALID,0,VALID,18.7098,VALID,125,VALID,0,
2013-12-21, 00:31:04,VALID,918.928,VALID,0,VALID,83.667,VALID,0,VALID,18.6513,VALID,125,VALID,0,
2013-12-21, 00:32:04,VALID,918.929,VALID,0,VALID,84.3455,VALID,0,VALID,18.5929,VALID,125,VALID,0,
2013-12-21, 00:33:04,VALID,918.906,VALID,0,VALID,84.6047,VALID,0,VALID,18.5344,VALID,125,VALID,0,
2013-12-21, 00:34:04,VALID,918.922,VALID,0,VALID,84.8639,VALID,0,VALID,18.5149,VALID,125,VALID,0,
2013-12-21, 00:35:04,VALID,918.901,VALID,0,VALID,85.4814,VALID,0,VALID,18.4745,VALID,111,VALID,0,
2013-12-21, 00:36:04,VALID,918.902,VALID,0,VALID,85.6567,VALID,0,VALID,18.4369,VALID,113,VALID,0,
2013-12-21, 00:37:04,VALID,918.882,VALID,0,VALID,85.9235,VALID,0,VALID,18.3979,VALID,117,VALID,0,
2013-12-21, 00:38:04,VALID,918.915,VALID,0,VALID,86.2132,VALID,0,VALID,18.3394,VALID,123,VALID,0,
2013-12-21, 00:39:04,VALID,918.913,VALID,0,VALID,86.9527,VALID,0,VALID,18.299,VALID,123,VALID,0,
2013-12-21, 00:40:04,VALID,918.887,VALID,0,VALID,87.6235,VALID,0,VALID,18.2601,VALID,123,VALID,0,
2013-12-21, 00:41:04,VALID,918.889,VALID,0,VALID,88.2792,VALID,0,VALID,18.242,VALID,123,VALID,0,
2013-12-21, 00:42:04,VALID,918.883,VALID,0,VALID,88.7442,VALID,0,VALID,18.203,VALID,123,VALID,0,
2013-12-21, 00:43:04,VALID,918.864,VALID,0,VALID,89.0339,VALID,0,VALID,18.1626,VALID,123,VALID,0,
2013-12-21, 00:44:04,VALID,918.868,VALID,0,VALID,89.476,VALID,0,VALID,18.164,VALID,131,VALID,0,
2013-12-21, 00:45:04,VALID,918.849,VALID,0,VALID,89.8038,VALID,0,VALID,18.1041,VALID,131,VALID,0,
2013-12-21, 00:46:04,VALID,918.844,VALID,0,VALID,90.1621,VALID,0,VALID,18.125,VALID,131,VALID,0,
2013-12-21, 00:47:04,VALID,918.844,VALID,0,VALID,90.2231,VALID,0,VALID,18.125,VALID,131,VALID,0,
2013-12-21, 00:48:04,VALID,918.822,VALID,0,VALID,90.368,VALID,0,VALID,18.1055,VALID,131,VALID,0,
2013-12-21, 00:49:04,VALID,918.82,VALID,0,VALID,90.4671,VALID,0,VALID,18.086,VALID,131,VALID,0,
2013-12-21, 00:50:04,VALID,918.821,VALID,0,VALID,90.5052,VALID,0,VALID,18.0665,VALID,131,VALID,0,
2013-12-21, 00:51:04,VALID,918.756,VALID,0,VALID,90.5662,VALID,0,VALID,18.0262,VALID,133,VALID,0,
2013-12-21, 00:52:04,VALID,918.789,VALID,0,VALID,89.8115,VALID,0,VALID,18.086,VALID,149,VALID,0,
2013-12-21, 00:53:04,VALID,918.781,VALID,0,VALID,89.781,VALID,0,VALID,18.125,VALID,150,VALID,0,
2013-12-21, 00:54:04,VALID,918.769,VALID,0,VALID,89.7047,VALID,0,VALID,18.1236,VALID,156,VALID,0,
2013-12-21, 00:55:04,VALID,918.791,VALID,0,VALID,89.7429,VALID,0,VALID,18.1445,VALID,157,VALID,0,
2013-12-21, 00:56:04,VALID,918.77,VALID,0,VALID,89.1406,VALID,0,VALID,18.164,VALID,142,VALID,0,
2013-12-21, 00:57:04,VALID,918.736,VALID,0,VALID,88.241,VALID,0,VALID,18.2225,VALID,139,VALID,0,
2013-12-21, 00:58:04,VALID,918.76,VALID,0,VALID,87.7303,VALID,0,VALID,18.2809,VALID,140,VALID,0,
2013-12-21, 00:59:04,VALID,918.751,VALID,0,VALID,86.6249,VALID,0,VALID,18.3784,VALID,144,VALID,0,
2013-12-21, 01:00:04,VALID,918.748,VALID,0,VALID,86.0303,VALID,0,VALID,18.4355,VALID,123,VALID,0,
2013-12-21, 01:01:04,VALID,918.751,VALID,0,VALID,85.2679,VALID,0,VALID,18.5539,VALID,148,VALID,0,
2013-12-21, 01:02:04,VALID,918.734,VALID,0,VALID,84.437,VALID,0,VALID,18.6513,VALID,136,VALID,0,
2013-12-21, 01:03:04,VALID,918.727,VALID,0,VALID,83.8576,VALID,0,VALID,18.7293,VALID,143,VALID,0,
2013-12-21, 01:04:04,VALID,918.699,VALID,0,VALID,83.4154,VALID,0,VALID,18.7864,VALID,142,VALID,0,
2013-12-21, 01:05:04,VALID,918.701,VALID,0,VALID,83.1715,VALID,0,VALID,18.8853,VALID,134,VALID,0,
2013-12-21, 01:06:04,VALID,918.678,VALID,0,VALID,82.958,VALID,0,VALID,18.9048,VALID,141,VALID,0,
2013-12-21, 01:07:04,VALID,918.627,VALID,0,VALID,82.2414,VALID,0,VALID,18.8839,VALID,141,VALID,0,
2013-12-21, 01:08:04,VALID,918.645,VALID,0,VALID,82.2033,VALID,0,VALID,18.9828,VALID,147,VALID,0,
2013-12-21, 01:09:04,VALID,918.621,VALID,0,VALID,81.8526,VALID,0,VALID,19.0218,VALID,134,VALID,0,
2013-12-21, 01:10:04,VALID,918.624,VALID,0,VALID,81.7611,VALID,0,VALID,19.0413,VALID,140,VALID,0,
2013-12-21, 01:11:04,VALID,918.579,VALID,0,VALID,81.601,VALID,0,VALID,19.0413,VALID,134,VALID,0,
2013-12-21, 01:12:04,VALID,918.584,VALID,0,VALID,81.9517,VALID,0,VALID,19.0608,VALID,142,VALID,0,
2013-12-21, 01:13:04,VALID,918.596,VALID,0,VALID,81.5019,VALID,0,VALID,19.0398,VALID,149,VALID,0,
2013-12-21, 01:14:04,VALID,918.536,VALID,0,VALID,81.5019,VALID,0,VALID,19.0593,VALID,139,VALID,0,
2013-12-21, 01:15:04,VALID,918.556,VALID,0,VALID,81.5553,VALID,0.107441,VALID,19.0788,VALID,142,VALID,0,
2013-12-21, 01:16:04,VALID,918.519,VALID,0,VALID,81.601,VALID,0,VALID,19.0788,VALID,136,VALID,0,
2013-12-21, 01:17:04,VALID,918.533,VALID,0,VALID,81.5782,VALID,0,VALID,19.0998,VALID,149,VALID,0,
2013-12-21, 01:18:04,VALID,918.536,VALID,0,VALID,82.1042,VALID,0,VALID,19.0593,VALID,141,VALID,0,
2013-12-21, 01:19:04,VALID,918.524,VALID,0,VALID,82.1194,VALID,0.107441,VALID,19.0398,VALID,155,VALID,0,
2013-12-21, 01:20:04,VALID,918.477,VALID,0,VALID,81.8374,VALID,0.107441,VALID,19.0008,VALID,167,VALID,0,
2013-12-21, 01:21:04,VALID,918.464,VALID,0,VALID,81.7688,VALID,0.107441,VALID,19.0398,VALID,150,VALID,0,
2013-12-21, 01:22:04,VALID,918.472,VALID,0,VALID,81.7078,VALID,0.107441,VALID,19.0788,VALID,144,VALID,0,
2013-12-21, 01:23:04,VALID,918.431,VALID,0,VALID,81.7383,VALID,0,VALID,19.0998,VALID,140,VALID,0,
2013-12-21, 01:24:04,VALID,918.41,VALID,0,VALID,81.7306,VALID,0,VALID,19.0788,VALID,150,VALID,0,
2013-12-21, 01:25:04,VALID,918.382,VALID,0,VALID,81.6849,VALID,0.107441,VALID,19.1193,VALID,153,VALID,0,
2013-12-21, 01:26:04,VALID,918.393,VALID,0,VALID,81.9898,VALID,0,VALID,19.1193,VALID,151,VALID,0,
2013-12-21, 01:27:04,VALID,918.412,VALID,0,VALID,81.8755,VALID,0,VALID,19.0788,VALID,138,VALID,0,
2013-12-21, 01:28:04,VALID,918.376,VALID,0,VALID,81.5553,VALID,0,VALID,19.0983,VALID,145,VALID,0,
2013-12-21, 01:29:04,VALID,918.349,VALID,0,VALID,81.784,VALID,0,VALID,19.1178,VALID,159,VALID,0,
2013-12-21, 01:30:04,VALID,918.311,VALID,0,VALID,81.8907,VALID,0,VALID,19.1178,VALID,158,VALID,0,
2013-12-21, 01:31:04,VALID,918.291,VALID,0,VALID,82.0966,VALID,0.107441,VALID,19.1178,VALID,168,VALID,0,
2013-12-21, 01:32:04,VALID,918.277,VALID,0,VALID,82.1576,VALID,0,VALID,19.1178,VALID,173,VALID,0,
2013-12-21, 01:33:04,VALID,918.288,VALID,0,VALID,82.0661,VALID,0,VALID,19.1193,VALID,165,VALID,0,
2013-12-21, 01:34:04,VALID,918.233,VALID,0,VALID,82.3176,VALID,0,VALID,19.1193,VALID,163,VALID,0,
2013-12-21, 01:35:04,VALID,918.235,VALID,0,VALID,81.9822,VALID,0,VALID,19.1402,VALID,147,VALID,0,
2013-12-21, 01:36:04,VALID,918.243,VALID,0,VALID,81.8984,VALID,0,VALID,19.1388,VALID,149,VALID,0,
2013-12-21, 01:37:04,VALID,918.218,VALID,0,VALID,81.6849,VALID,0,VALID,19.1388,VALID,157,VALID,0,
2013-12-21, 01:38:04,VALID,918.212,VALID,0,VALID,82.0737,VALID,0,VALID,19.1388,VALID,157,VALID,0,
2013-12-21, 01:39:04,VALID,918.197,VALID,0,VALID,82.2795,VALID,0,VALID,19.1597,VALID,171,VALID,0,
2013-12-21, 01:40:04,VALID,918.189,VALID,0,VALID,82.4244,VALID,0,VALID,19.1388,VALID,171,VALID,0,
2013-12-21, 01:41:04,VALID,918.177,VALID,0,VALID,81.967,VALID,0,VALID,19.1193,VALID,170,VALID,0,
2013-12-21, 01:42:04,VALID,918.138,VALID,0,VALID,82.1042,VALID,0,VALID,19.1388,VALID,171,VALID,0,
2013-12-21, 01:43:04,VALID,918.151,VALID,0,VALID,82.2109,VALID,0,VALID,19.1388,VALID,170,VALID,0,
2013-12-21, 01:44:04,VALID,918.083,VALID,0,VALID,81.8526,VALID,0,VALID,19.0998,VALID,135,VALID,0,
2013-12-21, 01:45:04,VALID,918.106,VALID,0,VALID,82.0813,VALID,0,VALID,19.0998,VALID,128,VALID,0,
2013-12-21, 01:46:04,VALID,918.081,VALID,0,VALID,81.8374,VALID,0,VALID,19.0803,VALID,128,VALID,0,
2013-12-21, 01:47:04,VALID,918.045,VALID,0,VALID,81.6773,VALID,0,VALID,19.0998,VALID,140,VALID,0,
2013-12-21, 01:48:04,VALID,918.065,VALID,0,VALID,81.8907,VALID,0,VALID,19.0788,VALID,123,VALID,0,
2013-12-21, 01:49:04,VALID,918.055,VALID,0,VALID,81.9365,VALID,0.107441,VALID,19.0983,VALID,128,VALID,0,
2013-12-21, 01:50:04,VALID,918.035,VALID,0,VALID,82.4396,VALID,0,VALID,19.0983,VALID,124,VALID,0,
2013-12-21, 01:51:04,VALID,918.026,VALID,0,VALID,82.5006,VALID,0,VALID,19.0593,VALID,126,VALID,0,
2013-12-21, 01:52:04,VALID,918.032,VALID,0,VALID,82.8665,VALID,0,VALID,19.0203,VALID,132,VALID,0,
2013-12-21, 01:53:04,VALID,918.045,VALID,0,VALID,82.7141,VALID,0.107441,VALID,19.0203,VALID,130,VALID,0,
2013-12-21, 01:54:04,VALID,918.023,VALID,0,VALID,83.0571,VALID,0,VALID,19.0008,VALID,135,VALID,0,
2013-12-21, 01:55:04,VALID,918.045,VALID,0,VALID,82.7522,VALID,0,VALID,18.9814,VALID,136,VALID,0,
2013-12-21, 01:56:04,VALID,918.013,VALID,0,VALID,83.2782,VALID,0,VALID,19.0008,VALID,149,VALID,0,
2013-12-21, 01:57:04,VALID,918.041,VALID,0,VALID,82.8742,VALID,0.107441,VALID,19.0218,VALID,144,VALID,0,
2013-12-21, 01:58:04,VALID,918.031,VALID,0,VALID,82.958,VALID,0,VALID,18.9814,VALID,141,VALID,0,
2013-12-21, 01:59:04,VALID,918.041,VALID,0,VALID,83.4154,VALID,0.107441,VALID,18.9619,VALID,142,VALID,0,
2013-12-21, 02:00:04,VALID,918.015,VALID,0,VALID,83.3163,VALID,0.107441,VALID,18.9424,VALID,130,VALID,0,
2013-12-21, 02:01:04,VALID,918.015,VALID,0,VALID,84.01,VALID,0,VALID,18.9229,VALID,138,VALID,0,
2013-12-21, 02:02:04,VALID,917.988,VALID,0,VALID,84.0939,VALID,0.107441,VALID,18.8644,VALID,134,VALID,0,
2013-12-21, 02:03:04,VALID,918.008,VALID,0,VALID,84.4674,VALID,0,VALID,18.8658,VALID,134,VALID,0,
2013-12-21, 02:04:04,VALID,917.995,VALID,0,VALID,84.6962,VALID,0,VALID,18.8087,VALID,134,VALID,0,
2013-12-21, 02:05:04,VALID,917.993,VALID,0,VALID,85.1841,VALID,0,VALID,18.7683,VALID,134,VALID,0,
2013-12-21, 02:06:04,VALID,917.955,VALID,0,VALID,85.4128,VALID,0,VALID,18.7293,VALID,134,VALID,0,
2013-12-21, 02:07:04,VALID,917.947,VALID,0,VALID,86.0531,VALID,0,VALID,18.7293,VALID,134,VALID,0,
2013-12-21, 02:08:04,VALID,917.905,VALID,0,VALID,85.8702,VALID,0,VALID,18.6708,VALID,134,VALID,0,
2013-12-21, 02:09:04,VALID,917.895,VALID,0,VALID,86.1751,VALID,0,VALID,18.6513,VALID,134,VALID,0,
2013-12-21, 02:10:04,VALID,917.878,VALID,0,VALID,86.3199,VALID,0,VALID,18.6124,VALID,134,VALID,0,
2013-12-21, 02:11:04,VALID,917.894,VALID,0,VALID,86.4419,VALID,0,VALID,18.6124,VALID,134,VALID,0,
2013-12-21, 02:12:04,VALID,917.861,VALID,0,VALID,86.7164,VALID,0,VALID,18.5734,VALID,134,VALID,0,
2013-12-21, 02:13:04,VALID,917.879,VALID,0,VALID,86.5715,VALID,0,VALID,18.5943,VALID,134,VALID,0,
2013-12-21, 02:14:04,VALID,917.862,VALID,0,VALID,86.7164,VALID,0,VALID,18.5539,VALID,134,VALID,0,
2013-12-21, 02:15:04,VALID,917.873,VALID,0,VALID,86.6249,VALID,0,VALID,18.5344,VALID,134,VALID,0,
2013-12-21, 02:16:04,VALID,917.828,VALID,0,VALID,86.6554,VALID,0,VALID,18.5344,VALID,134,VALID,0,
2013-12-21, 02:17:04,VALID,917.858,VALID,0,VALID,86.8231,VALID,0,VALID,18.5344,VALID,134,VALID,0,
2013-12-21, 02:18:05,VALID,917.842,VALID,0,VALID,86.9222,VALID,0,VALID,18.5149,VALID,134,VALID,0,
2013-12-21, 02:19:05,VALID,917.833,VALID,0,VALID,86.8764,VALID,0,VALID,18.494,VALID,134,VALID,0,
2013-12-21, 02:20:05,VALID,917.819,VALID,0,VALID,86.6706,VALID,0,VALID,18.5344,VALID,135,VALID,0,
2013-12-21, 02:21:05,VALID,917.833,VALID,0,VALID,86.8383,VALID,0,VALID,18.5135,VALID,135,VALID,0,
2013-12-21, 02:22:05,VALID,917.831,VALID,0,VALID,86.9374,VALID,0,VALID,18.533,VALID,137,VALID,0,
2013-12-21, 02:23:05,VALID,917.82,VALID,0,VALID,86.5486,VALID,0,VALID,18.5525,VALID,157,VALID,0,
2013-12-21, 02:24:05,VALID,917.851,VALID,0,VALID,86.3809,VALID,0,VALID,18.5539,VALID,139,VALID,0,
2013-12-21, 02:25:05,VALID,917.816,VALID,0,VALID,86.602,VALID,0,VALID,18.5539,VALID,157,VALID,0,
2013-12-21, 02:26:05,VALID,917.833,VALID,0,VALID,86.5105,VALID,0.107441,VALID,18.533,VALID,148,VALID,0,
2013-12-21, 02:27:05,VALID,917.82,VALID,0,VALID,86.602,VALID,0,VALID,18.533,VALID,130,VALID,0,
2013-12-21, 02:28:05,VALID,917.818,VALID,0,VALID,86.5105,VALID,0,VALID,18.5135,VALID,133,VALID,0,
2013-12-21, 02:29:05,VALID,917.814,VALID,0,VALID,86.2285,VALID,0.107441,VALID,18.5539,VALID,133,VALID,0,
2013-12-21, 02:30:05,VALID,917.801,VALID,0,VALID,86.3047,VALID,0,VALID,18.533,VALID,131,VALID,0,
2013-12-21, 02:31:05,VALID,917.803,VALID,0,VALID,86.3047,VALID,0,VALID,18.5734,VALID,137,VALID,0,
2013-12-21, 02:32:05,VALID,917.777,VALID,0,VALID,86.2056,VALID,0,VALID,18.5734,VALID,134,VALID,0,
2013-12-21, 02:33:05,VALID,917.808,VALID,0,VALID,86.0455,VALID,0,VALID,18.572,VALID,136,VALID,0,
2013-12-21, 02:34:05,VALID,917.8,VALID,0,VALID,86.137,VALID,0.107441,VALID,18.572,VALID,142,VALID,0,
2013-12-21, 02:35:05,VALID,917.827,VALID,0,VALID,86.2589,VALID,0.107441,VALID,18.5929,VALID,136,VALID,0,
2013-12-21, 02:36:05,VALID,917.783,VALID,0,VALID,86.3276,VALID,0,VALID,18.572,VALID,139,VALID,0,
2013-12-21, 02:37:05,VALID,917.809,VALID,0,VALID,86.2971,VALID,0,VALID,18.5525,VALID,138,VALID,0,
2013-12-21, 02:38:05,VALID,917.821,VALID,0,VALID,86.2513,VALID,0,VALID,18.5734,VALID,135,VALID,0,
2013-12-21, 02:39:05,VALID,917.79,VALID,0,VALID,86.3809,VALID,0,VALID,18.5734,VALID,139,VALID,0,
2013-12-21, 02:40:05,VALID,917.785,VALID,0,VALID,86.5105,VALID,0,VALID,18.533,VALID,142,VALID,0,
2013-12-21, 02:41:05,VALID,917.797,VALID,0,VALID,86.6477,VALID,0,VALID,18.533,VALID,138,VALID,0,
2013-12-21, 02:42:05,VALID,917.806,VALID,0,VALID,86.9222,VALID,0,VALID,18.5135,VALID,145,VALID,0,
2013-12-21, 02:43:05,VALID,917.803,VALID,0,VALID,87.0213,VALID,0.107441,VALID,18.4954,VALID,137,VALID,0,
2013-12-21, 02:44:05,VALID,917.845,VALID,0,VALID,87.2957,VALID,0,VALID,18.4954,VALID,142,VALID,0,
2013-12-21, 02:45:05,VALID,917.847,VALID,0,VALID,87.3262,VALID,0,VALID,18.4759,VALID,136,VALID,0,
2013-12-21, 02:46:05,VALID,917.822,VALID,0,VALID,87.4482,VALID,0,VALID,18.4759,VALID,139,VALID,0,
2013-12-21, 02:47:05,VALID,917.86,VALID,0,VALID,87.4634,VALID,0,VALID,18.455,VALID,148,VALID,0,
2013-12-21, 02:48:05,VALID,917.812,VALID,0,VALID,87.5702,VALID,0,VALID,18.455,VALID,145,VALID,0,
2013-12-21, 02:49:05,VALID,917.817,VALID,0,VALID,87.5626,VALID,0,VALID,18.4759,VALID,135,VALID,0,
2013-12-21, 02:50:05,VALID,917.822,VALID,0,VALID,87.4711,VALID,0,VALID,18.455,VALID,140,VALID,0,
2013-12-21, 02:51:05,VALID,917.825,VALID,0,VALID,87.3948,VALID,0,VALID,18.455,VALID,146,VALID,0,
2013-12-21, 02:52:05,VALID,917.806,VALID,0,VALID,87.2729,VALID,0,VALID,18.4954,VALID,146,VALID,0,
2013-12-21, 02:53:05,VALID,917.794,VALID,0,VALID,87.2347,VALID,0,VALID,18.4954,VALID,138,VALID,0,
2013-12-21, 02:54:05,VALID,917.767,VALID,0,VALID,87.2805,VALID,0,VALID,18.494,VALID,143,VALID,0,
2013-12-21, 02:55:05,VALID,917.764,VALID,0,VALID,87.3415,VALID,0,VALID,18.494,VALID,143,VALID,0,
2013-12-21, 02:56:05,VALID,917.751,VALID,0,VALID,87.4482,VALID,0,VALID,18.494,VALID,143,VALID,0,
2013-12-21, 02:57:05,VALID,917.75,VALID,0,VALID,87.5702,VALID,0,VALID,18.4954,VALID,143,VALID,0,
2013-12-21, 02:58:05,VALID,917.764,VALID,0,VALID,87.4711,VALID,0,VALID,18.4759,VALID,143,VALID,0,
2013-12-21, 02:59:05,VALID,917.751,VALID,0,VALID,87.7074,VALID,0,VALID,18.4954,VALID,143,VALID,0,
2013-12-21, 03:00:05,VALID,917.71,VALID,0,VALID,87.6083,VALID,0,VALID,18.4954,VALID,143,VALID,0,
2013-12-21, 03:01:05,VALID,917.681,VALID,0,VALID,87.6235,VALID,0.107441,VALID,18.5344,VALID,142,VALID,0,
2013-12-21, 03:02:05,VALID,917.69,VALID,0,VALID,87.3262,VALID,0,VALID,18.5539,VALID,121,VALID,0,
2013-12-21, 03:03:05,VALID,917.703,VALID,0,VALID,87.1661,VALID,0,VALID,18.5929,VALID,129,VALID,0,
2013-12-21, 03:04:05,VALID,917.678,VALID,0,VALID,87.0213,VALID,0,VALID,18.6124,VALID,129,VALID,0,
2013-12-21, 03:05:05,VALID,917.683,VALID,0,VALID,86.9146,VALID,0,VALID,18.6319,VALID,129,VALID,0,
2013-12-21, 03:06:05,VALID,917.678,VALID,0,VALID,86.9984,VALID,0,VALID,18.6319,VALID,129,VALID,0,
2013-12-21, 03:07:05,VALID,917.64,VALID,0,VALID,87.0289,VALID,0,VALID,18.6304,VALID,129,VALID,0,
2013-12-21, 03:08:05,VALID,917.653,VALID,0,VALID,87.0594,VALID,0,VALID,18.6513,VALID,129,VALID,0,
2013-12-21, 03:09:05,VALID,917.654,VALID,0,VALID,87.2576,VALID,0,VALID,18.6513,VALID,129,VALID,0,
2013-12-21, 03:10:05,VALID,917.673,VALID,0,VALID,87.1966,VALID,0,VALID,18.6708,VALID,129,VALID,0,
2013-12-21, 03:11:05,VALID,917.678,VALID,0,VALID,87.2881,VALID,0,VALID,18.7098,VALID,129,VALID,0,
2013-12-21, 03:12:05,VALID,917.663,VALID,0,VALID,87.6083,VALID,0,VALID,18.7098,VALID,129,VALID,0,
2013-12-21, 03:13:05,VALID,917.667,VALID,0,VALID,88.1038,VALID,0.107441,VALID,18.7084,VALID,129,VALID,0,
2013-12-21, 03:14:05,VALID,917.662,VALID,0,VALID,88.1267,VALID,0.107441,VALID,18.6694,VALID,129,VALID,0,
2013-12-21, 03:15:05,VALID,917.685,VALID,0,VALID,88.7747,VALID,0,VALID,18.6708,VALID,129,VALID,0,
2013-12-21, 03:16:05,VALID,917.67,VALID,0,VALID,88.9195,VALID,0,VALID,18.6124,VALID,129,VALID,0,
2013-12-21, 03:17:05,VALID,917.669,VALID,0,VALID,89.2016,VALID,0,VALID,18.5734,VALID,129,VALID,0,
2013-12-21, 03:18:05,VALID,917.685,VALID,0,VALID,88.9195,VALID,0,VALID,18.5149,VALID,129,VALID,0,
2013-12-21, 03:19:05,VALID,917.694,VALID,0,VALID,89.3236,VALID,0,VALID,18.4759,VALID,129,VALID,0,
2013-12-21, 03:20:05,VALID,917.691,VALID,0,VALID,89.4532,VALID,0,VALID,18.4174,VALID,129,VALID,0,
2013-12-21, 03:21:05,VALID,917.688,VALID,0,VALID,89.8801,VALID,0,VALID,18.338,VALID,129,VALID,0,
2013-12-21, 03:22:05,VALID,917.693,VALID,0,VALID,90.1621,VALID,0,VALID,18.3199,VALID,129,VALID,0,
2013-12-21, 03:23:05,VALID,917.713,VALID,0,VALID,90.3908,VALID,0,VALID,18.2809,VALID,129,VALID,0,
2013-12-21, 03:24:05,VALID,917.69,VALID,0,VALID,90.5204,VALID,0,VALID,18.2615,VALID,129,VALID,0,
2013-12-21, 03:25:05,VALID,917.688,VALID,0,VALID,90.6043,VALID,0,VALID,18.2406,VALID,129,VALID,0,
2013-12-21, 03:26:05,VALID,917.685,VALID,0,VALID,90.8025,VALID,0,VALID,18.2823,VALID,129,VALID,0,
2013-12-21, 03:27:05,VALID,917.707,VALID,0,VALID,91.0083,VALID,0,VALID,18.2615,VALID,129,VALID,0,
2013-12-21, 03:28:05,VALID,917.688,VALID,0,VALID,90.5128,VALID,0,VALID,18.2238,VALID,129,VALID,0,
2013-12-21, 03:29:05,VALID,917.701,VALID,0,VALID,90.3299,VALID,0,VALID,18.1835,VALID,129,VALID,0,
2013-12-21, 03:30:05,VALID,917.697,VALID,0,VALID,90.2384,VALID,0,VALID,18.1041,VALID,129,VALID,0,
2013-12-21, 03:31:05,VALID,917.702,VALID,0,VALID,89.9106,VALID,0,VALID,18.1041,VALID,129,VALID,0,
2013-12-21, 03:32:05,VALID,917.713,VALID,0,VALID,89.9411,VALID,0,VALID,18.164,VALID,129,VALID,0,
2013-12-21, 03:33:05,VALID,917.728,VALID,0,VALID,89.9639,VALID,0,VALID,18.1835,VALID,129,VALID,0,
2013-12-21, 03:34:05,VALID,917.733,VALID,0,VALID,90.1316,VALID,0,VALID,18.1835,VALID,129,VALID,0,
2013-12-21, 03:35:05,VALID,917.725,VALID,0,VALID,90.246,VALID,0,VALID,18.164,VALID,129,VALID,0,
2013-12-21, 03:36:05,VALID,917.745,VALID,0,VALID,90.2765,VALID,0,VALID,18.1445,VALID,129,VALID,0,
2013-12-21, 03:37:05,VALID,917.709,VALID,0,VALID,90.5281,VALID,0,VALID,18.1445,VALID,129,VALID,0,
2013-12-21, 03:38:05,VALID,917.711,VALID,0,VALID,90.8483,VALID,0,VALID,18.125,VALID,129,VALID,0,
2013-12-21, 03:39:05,VALID,917.715,VALID,0,VALID,90.9473,VALID,0,VALID,18.047,VALID,129,VALID,0,
2013-12-21, 03:40:05,VALID,917.715,VALID,0,VALID,91.1684,VALID,0,VALID,17.9872,VALID,129,VALID,0,
2013-12-21, 03:41:05,VALID,917.68,VALID,0,VALID,91.3514,VALID,0,VALID,17.9886,VALID,129,VALID,0,
2013-12-21, 03:42:05,VALID,917.692,VALID,0,VALID,91.2218,VALID,0,VALID,18.0275,VALID,129,VALID,0,
2013-12-21, 03:43:05,VALID,917.678,VALID,0,VALID,91.1989,VALID,0,VALID,18.0651,VALID,129,VALID,0,
2013-12-21, 03:44:05,VALID,917.656,VALID,0,VALID,91.1379,VALID,0,VALID,18.0846,VALID,129,VALID,0,
2013-12-21, 03:45:05,VALID,917.655,VALID,0,VALID,90.6043,VALID,0,VALID,18.125,VALID,129,VALID,0,
2013-12-21, 03:46:05,VALID,917.677,VALID,0,VALID,89.7505,VALID,0,VALID,18.1445,VALID,129,VALID,0,
2013-12-21, 03:47:05,VALID,917.649,VALID,0,VALID,89.5599,VALID,0,VALID,18.1835,VALID,129,VALID,0,
2013-12-21, 03:48:05,VALID,917.661,VALID,0,VALID,89.4913,VALID,0,VALID,18.1835,VALID,129,VALID,0,
2013-12-21, 03:49:05,VALID,917.639,VALID,0,VALID,89.5142,VALID,0,VALID,18.1835,VALID,129,VALID,0,
2013-12-21, 03:50:05,VALID,917.659,VALID,0,VALID,89.2245,VALID,0,VALID,18.203,VALID,129,VALID,0,
2013-12-21, 03:51:05,VALID,917.651,VALID,0,VALID,89.1711,VALID,0,VALID,18.2225,VALID,129,VALID,0,
2013-12-21, 03:52:05,VALID,917.66,VALID,0,VALID,89.5675,VALID,0,VALID,18.203,VALID,129,VALID,0,
2013-12-21, 03:53:05,VALID,917.646,VALID,0,VALID,89.7962,VALID,0,VALID,18.203,VALID,129,VALID,0,
2013-12-21, 03:54:05,VALID,917.652,VALID,0,VALID,89.9639,VALID,0,VALID,18.164,VALID,129,VALID,0,
2013-12-21, 03:55:05,VALID,917.625,VALID,0,VALID,90.0021,VALID,0,VALID,18.164,VALID,129,VALID,0,
2013-12-21, 03:56:05,VALID,917.589,VALID,0,VALID,90.2765,VALID,0,VALID,18.125,VALID,124,VALID,0,
2013-12-21, 03:57:05,VALID,917.599,VALID,0,VALID,90.307,VALID,0,VALID,18.086,VALID,123,VALID,0,
2013-12-21, 03:58:05,VALID,917.565,VALID,0,VALID,90.3451,VALID,0,VALID,18.1055,VALID,118,VALID,0,